Location: Unspecified
(0.0000°N, 0.0000°E)
Time: 19:36:20
(UTC+00:00)

Vanguard 1 Rocket - Pass Details

Date: 24 April 2026
Orbit: 655 x 4212 km, 34.3° (Epoch: 17 May)

Event Time Altitude Azimuth Distance (km) Brightness Sun altitude
Rises 00:58:57 0° 315° (NW) 8,378 12.3 -70.2°
Reaches altitude 10° 01:07:00 10° 326° (NW) 7,067 11.9 -68.7°
Maximum altitude 01:24:23 28° 17° (NNE) 4,467 10.9 -65.1°
Drops below altitude 10° 01:35:27 10° 71° (ENE) 4,544 11.2 -62.7°
Sets 01:39:03 0° 83° (E) 5,082 11.6 -61.9°
